Погода в Актобе

Казахстан     50°18′01″N   57°09′16″E
темп.,
°C
ветер,
м/с
пор.,
м/с
влажн.,
%
обл.,
%
осадки,
мм/ч
давл.,
гПа
погр.,
м
1 марта, пн
пн123:00−15зюз4895100 0.3 1012216
02:00−18зюз479794 0.0 1014127
05:00−19зюз369792 0.1 1015112
08:00−19зюз3697100 0.1 1017159
11:00−16з4694100 0.1 1019264
14:00−14зюз4592100 0.1 1019315
17:00−14з4792100 0.1 1020379
20:00−17з489699 0.1 1021170
2 марта, вт
вт223:00−18з499693 0.1 1022162
02:00−19з469891 0.0 1022122
05:00−22з4510093 0.1 102385
08:00−23зюз359992 0.0 102361
11:00−19зюз479382 0.0 1023269
14:00−15юз589067 0.0 1022349
17:00−12юз6118877 0.0 1020473
20:00−11юз7149198 0.0 1018476
3 марта, ср
ср323:00−7юз8159099 0.1 1015625
02:00−6юз81590100 0.1 1012636
05:00−4юз91693100 0.4 1011776
08:00−3юз91594100 0.7 1009792
11:00−2юз101593100 1.3 1009905
14:00−1юз101494100 0.6 1007975
17:000юз91395100 1.3 1006951
20:00−1юз71296100 0.8 1005633
4 марта, чт
чт423:00−2юз61196100 1.4 1006537
02:00−2юз61195100 0.4 1005450
05:00−2з5897100 0.9 1006346
08:00−10сз599699 0.3 1008210
11:00−8зсз689598 0.3 1011402
14:00−7зсз6990100 0.1 1014530
17:00−7з6108993 0.1 1016530
20:00−12зюз5109485 0.0 1017203
5 марта, пт
пт523:00−10юз7159285 0.0 1018358
02:00−8юз8169099 0.0 1017476
05:00−7юз9188699 0.0 1016515
08:00−6юз10198435 0.0 1016520
11:00−3юз11188224 0.0 1017717
14:00−1юз11178120 0.0 1017839
17:00−1юз9178338 0.0 1018816
20:00−3юз8178795 0.0 1018618